• In India
  • List of Countries
  • For 7 days
  • Water Temperature
  • Satellite Maps
  • Weather Map
  • Weather Widgets
  • user-avatar
    Login

    Hourly Weather Canberra

    Today, 11 December, Monday

    Time Temperature Precipitation Wind Pressure Humidity
    00:00 +15°C° 0 mm 1 mps 712 mmHg 85%
    01:00 +15°C° 0 mm 1 mps 712 mmHg 89%
    02:00 +15°C° 0 mm 1 mps 711 mmHg 90%
    03:00 +14°C° 0 mm 1 mps 711 mmHg 92%
    04:00 +14°C° 0 mm 1 mps 711 mmHg 93%
    05:00 +16°C° 0 mm 1 mps 711 mmHg 85%
    06:00 +17°C° 0 mm 0 mps 712 mmHg 76%
    07:00 +19°C° 0 mm 0 mps 712 mmHg 67%
    08:00 +23°C° 0 mm 1 mps 712 mmHg 57%
    09:00 +26°C° 0 mm 2 mps 713 mmHg 48%
    10:00 +28°C° 0 mm 2 mps 713 mmHg 38%
    11:00 +29°C° 0 mm 2 mps 712 mmHg 35%
    12:00 +30°C° 0 mm 3 mps 712 mmHg 32%
    13:00 +31°C° 0 mm 3 mps 712 mmHg 30%
    14:00 +30°C° 0 mm 3 mps 712 mmHg 32%
    15:00 +30°C° 0 mm 3 mps 711 mmHg 34%
    16:00 +29°C° 0 mm 3 mps 711 mmHg 36%
    17:00 +27°C° 0 mm 3 mps 711 mmHg 48%
    18:00 +24°C° 0 mm 3 mps 711 mmHg 60%
    19:00 +20°C° 0 mm 3 mps 711 mmHg 72%
    20:00 +19°C° 0 mm 3 mps 711 mmHg 78%
    21:00 +18°C° 0 mm 3 mps 711 mmHg 84%
    22:00 +17°C° 0 mm 2 mps 712 mmHg 90%
    23:00 +16°C° 0 mm 2 mps 711 mmHg 92%

    Tomorrow, 12 December, Tuesday

    Time Temperature Precipitation Wind Pressure Humidity
    00:00 +16°C° 0 mm 2 mps 711 mmHg 93%
    01:00 +15°C° 0 mm 2 mps 711 mmHg 95%
    02:00 +15°C° 0 mm 2 mps 711 mmHg 94%
    03:00 +15°C° 0 mm 1 mps 711 mmHg 93%
    04:00 +15°C° 0 mm 1 mps 710 mmHg 92%
    05:00 +16°C° 0 mm 1 mps 711 mmHg 87%
    06:00 +18°C° 0 mm 1 mps 711 mmHg 81%
    07:00 +19°C° 0 mm 1 mps 711 mmHg 76%
    08:00 +22°C° 0 mm 1 mps 712 mmHg 65%
    09:00 +25°C° 0 mm 2 mps 712 mmHg 54%
    10:00 +28°C° 0 mm 2 mps 712 mmHg 43%
    11:00 +29°C° 0 mm 2 mps 711 mmHg 38%
    12:00 +30°C° 0 mm 3 mps 711 mmHg 32%
    13:00 +31°C° 0 mm 3 mps 711 mmHg 27%
    14:00 +31°C° 0 mm 3 mps 710 mmHg 27%
    15:00 +31°C° 0 mm 3 mps 710 mmHg 27%
    16:00 +31°C° 0 mm 3 mps 709 mmHg 27%
    17:00 +29°C° 0 mm 2 mps 709 mmHg 35%
    18:00 +26°C° 0 mm 2 mps 709 mmHg 43%
    19:00 +24°C° 0 mm 1 mps 709 mmHg 52%
    20:00 +22°C° 0 mm 1 mps 709 mmHg 59%
    21:00 +21°C° 0 mm 1 mps 709 mmHg 66%
    22:00 +19°C° 0 mm 1 mps 710 mmHg 73%
    23:00 +19°C° 0 mm 1 mps 709 mmHg 78%

    Day after tomorrow, 13 December, Wednesday

    Time Temperature Precipitation Wind Pressure Humidity
    00:00 +18°C° 0 mm 1 mps 709 mmHg 82%
    01:00 +18°C° 0 mm 1 mps 708 mmHg 87%
    02:00 +16°C° 0 mm 1 mps 708 mmHg 87%
    03:00 +16°C° 0 mm 1 mps 708 mmHg 88%
    04:00 +16°C° 0 mm 1 mps 708 mmHg 89%
    05:00 +19°C° 0 mm 1 mps 708 mmHg 79%
    06:00 +21°C° 0 mm 1 mps 709 mmHg 69%
    07:00 +23°C° 0 mm 1 mps 709 mmHg 59%
    08:00 +26°C° 0 mm 1 mps 709 mmHg 48%
    09:00 +29°C° 0 mm 2 mps 709 mmHg 37%
    10:00 +31°C° 0 mm 3 mps 709 mmHg 26%
    11:00 +33°C° 0 mm 3 mps 709 mmHg 23%
    12:00 +34°C° 0 mm 3 mps 708 mmHg 20%
    13:00 +35°C° 0 mm 4 mps 708 mmHg 17%
    14:00 +35°C° 0 mm 4 mps 708 mmHg 17%
    15:00 +35°C° 0 mm 4 mps 707 mmHg 17%
    16:00 +35°C° 0 mm 4 mps 707 mmHg 18%
    17:00 +31°C° 0 mm 3 mps 707 mmHg 24%
    18:00 +28°C° 0 mm 2 mps 707 mmHg 30%
    19:00 +26°C° 0 mm 1 mps 707 mmHg 36%
    20:00 +24°C° 0 mm 1 mps 706 mmHg 36%
    21:00 +23°C° 0 mm 1 mps 706 mmHg 37%
    22:00 +22°C° 0 mm 1 mps 706 mmHg 37%
    23:00 +22°C° 0 mm 1 mps 706 mmHg 37%

    14 December, Thursday

    Time Temperature Precipitation Wind Pressure Humidity
    00:00 +21°C° 0 mm 1 mps 705 mmHg 37%
    01:00 +21°C° 0 mm 1 mps 705 mmHg 36%
    02:00 +21°C° 0 mm 1 mps 705 mmHg 39%
    03:00 +21°C° 0 mm 1 mps 704 mmHg 41%
    04:00 +21°C° 0 mm 1 mps 704 mmHg 44%
    05:00 +21°C° 0 mm 2 mps 705 mmHg 43%
    06:00 +24°C° 0 mm 3 mps 705 mmHg 42%
    07:00 +26°C° 0 mm 3 mps 705 mmHg 41%
    08:00 +28°C° 0 mm 5 mps 706 mmHg 36%
    09:00 +32°C° 0 mm 6 mps 706 mmHg 31%
    10:00 +34°C° 0 mm 8 mps 707 mmHg 26%
    11:00 +34°C° 0 mm 7 mps 706 mmHg 25%
    12:00 +35°C° 0 mm 7 mps 706 mmHg 24%
    13:00 +35°C° 0 mm 6 mps 706 mmHg 24%
    14:00 +35°C° 0 mm 5 mps 706 mmHg 24%
    15:00 +35°C° 0 mm 4 mps 705 mmHg 24%
    16:00 +35°C° 0 mm 3 mps 705 mmHg 25%
    17:00 +33°C° 0 mm 3 mps 705 mmHg 31%
    18:00 +29°C° 0 mm 2 mps 705 mmHg 37%
    19:00 +27°C° 0 mm 2 mps 705 mmHg 43%
    20:00 +26°C° 0 mm 2 mps 705 mmHg 50%
    21:00 +24°C° 0 mm 2 mps 706 mmHg 58%
    22:00 +21°C° 0 mm 2 mps 706 mmHg 66%
    23:00 +20°C° 0.1 mm 2 mps 706 mmHg 73%

    15 December, Friday

    Time Temperature Precipitation Wind Pressure Humidity
    00:00 +19°C° 0.1 mm 2 mps 706 mmHg 81%
    01:00 +18°C° 0.1 mm 2 mps 706 mmHg 89%
    02:00 +18°C° 0 mm 2 mps 706 mmHg 90%
    03:00 +17°C° 0 mm 2 mps 706 mmHg 91%
    04:00 +17°C° 0 mm 2 mps 706 mmHg 92%
    05:00 +18°C° 0 mm 2 mps 706 mmHg 88%
    06:00 +19°C° 0 mm 2 mps 707 mmHg 83%
    07:00 +19°C° 0 mm 2 mps 707 mmHg 79%
    08:00 +23°C° 0 mm 2 mps 707 mmHg 69%
    09:00 +25°C° 0 mm 2 mps 707 mmHg 59%
    10:00 +28°C° 0 mm 3 mps 707 mmHg 49%
    11:00 +29°C° 0 mm 3 mps 707 mmHg 43%
    12:00 +31°C° 0 mm 3 mps 707 mmHg 38%
    13:00 +34°C° 0 mm 3 mps 706 mmHg 33%
    14:00 +33°C° 0 mm 3 mps 706 mmHg 34%
    15:00 +33°C° 0 mm 3 mps 705 mmHg 35%
    16:00 +31°C° 0 mm 3 mps 705 mmHg 36%
    17:00 +29°C° 0.3 mm 3 mps 705 mmHg 45%
    18:00 +27°C° 0.3 mm 3 mps 705 mmHg 54%
    19:00 +24°C° 0.3 mm 3 mps 705 mmHg 64%
    20:00 +23°C° 0.1 mm 2 mps 705 mmHg 69%
    21:00 +21°C° 0.1 mm 2 mps 705 mmHg 74%
    22:00 +21°C° 0.1 mm 1 mps 706 mmHg 79%
    23:00 +21°C° 0.1 mm 1 mps 705 mmHg 79%

    16 December, Saturday

    Time Temperature Precipitation Wind Pressure Humidity
    00:00 +21°C° 0.1 mm 1 mps 705 mmHg 79%
    01:00 +21°C° 0.1 mm 1 mps 705 mmHg 79%
    02:00 +20°C° 0.1 mm 1 mps 705 mmHg 80%
    03:00 +20°C° 0.1 mm 1 mps 705 mmHg 81%
    04:00 +20°C° 0.1 mm 1 mps 705 mmHg 82%
    05:00 +21°C° 0.1 mm 1 mps 706 mmHg 76%
    06:00 +23°C° 0.1 mm 1 mps 707 mmHg 70%
    07:00 +24°C° 0.1 mm 2 mps 708 mmHg 65%
    08:00 +26°C° 0 mm 2 mps 708 mmHg 57%
    09:00 +28°C° 0 mm 3 mps 708 mmHg 49%
    10:00 +30°C° 0 mm 3 mps 709 mmHg 41%
    11:00 +32°C° 0 mm 4 mps 709 mmHg 37%
    12:00 +33°C° 0 mm 4 mps 709 mmHg 32%
    13:00 +34°C° 0 mm 4 mps 709 mmHg 28%
    14:00 +34°C° 0 mm 4 mps 709 mmHg 30%
    15:00 +33°C° 0 mm 4 mps 709 mmHg 31%
    16:00 +31°C° 0 mm 3 mps 709 mmHg 33%
    17:00 +28°C° 0 mm 3 mps 709 mmHg 45%
    18:00 +25°C° 0 mm 4 mps 709 mmHg 57%
    19:00 +21°C° 0 mm 4 mps 709 mmHg 69%
    20:00 +19°C° 0 mm 4 mps 710 mmHg 75%
    21:00 +18°C° 0 mm 4 mps 710 mmHg 80%
    22:00 +17°C° 0 mm 3 mps 711 mmHg 85%
    23:00 +17°C° 0 mm 3 mps 711 mmHg 85%
    Show more